Voltar ao catálogo

STARLINK-3808

AtivoComunicaçõesVLEO
NORAD 52366·PAYLOAD·🇺🇸 United States

Lançado Apr 29, 2022 de Cape Canaveral Space Force Station

Loading…

Próximas Passagens (próximas 24 horas)

TLE

AtualizadoSource: CelesTrak SupGP

Época: Sep 15, 2026, 02:22 UTC

1 52366C 22045AM  26258.09909722 -.00032473  00000+0 -95968-3 0  2584
2 52366  53.1596  50.6178 0001148  84.1378 268.1302 15.34398271    11

Acompanhe STARLINK-3808 em tempo real com AllMySat

Download on the App Store